GFSNGP_prec_cthk_078.txt.gz
RH
50 53 59 60 58 48 50 50 49 39 49 45 43 48 50 47 46 45 43 41 39 40 43 42 40 40 38 38 37 34 32 40 52 52 52 58 61 63 65 71 70 76 81 82
65 60 63 72 65 60 54 50 51 45 43 36 37 42 47 48 42 38 38 44 38 38 37 34 37 38 39 39 35 35 39 44 46 43 46 50 56 60 62 66 66 68 72 73
64 63 71 83 64 62 58 54 53 47 40 41 50 50 47 45 40 36 37 39 38 37 35 33 33 33 33 34 36 41 44 48 49 50 49 50 54 61 63 66 69 70 75 82
75 72 93 64 56 55 57 56 48 48 46 43 40 46 44 40 38 37 36 37 38 38 39 38 37 32 31 34 36 39 42 44 46 48 48 51 58 62 64 67 72 75 70 67
81 75 73 67 59 56 60 60 48 52 50 45 38 34 34 33 33 35 36 40 42 41 42 41 41 39 37 38 42 50 52 50 49 48 49 55 58 61 67 62 58 61 62 60
88 77 76 54 60 56 60 65 53 46 50 47 42 45 40 37 37 38 38 41 42 40 43 40 37 40 43 44 47 50 51 45 49 54 59 61 58 55 56 56 57 57 55 53
89 85 81 69 62 58 66 61 52 50 49 50 48 47 46 45 42 43 40 42 43 44 41 39 42 44 48 49 51 49 50 54 53 53 53 56 58 57 56 57 55 53 56 59
97 93 83 68 68 62 60 56 54 52 50 52 51 46 42 39 39 41 40 43 45 45 44 47 48 50 49 52 53 57 58 57 58 59 59 61 63 60 60 60 60 63 67 72
83 79 78 71 72 72 65 63 57 52 54 51 48 45 44 43 43 45 47 49 51 50 51 52 53 56 57 59 61 62 61 64 65 66 66 69 70 69 71 75 73 73 79 86
75 70 66 67 68 70 70 69 68 57 57 53 53 53 56 54 55 54 54 56 57 58 61 62 63 64 68 68 69 69 70 71 71 73 76 78 78 78 80 82 86 88 90 85
62 54 53 50 56 64 70 74 74 67 61 58 59 61 62 65 65 64 63 65 66 66 68 70 70 72 74 77 80 79 78 78 80 84 81 79 81 83 87 91 90 85 81 82
60 55 61 56 55 62 67 69 71 68 67 68 70 67 66 68 68 68 70 71 72 75 75 76 77 80 81 83 87 88 88 86 86 87 88 89 90 91 88 85 86 89 92 87
57 57 55 53 64 67 67 70 65 71 77 77 75 76 76 74 74 74 78 79 78 77 82 82 81 84 83 82 88 93 95 95 94 95 94 94 92 92 95 96 97 96 95 97
52 57 57 53 73 77 73 72 71 69 69 71 72 74 73 76 73 73 75 77 80 78 76 80 78 82 85 86 91 95 96 95 95 96 97 98 97 97 97 97 97 97 97 97
69 60 60 54 64 70 67 62 59 66 74 74 67 66 70 71 69 68 70 76 76 76 79 82 86 89 89 90 93 94 94 95 96 96 96 96 96 96 96 96 96 96 96 95
66 63 60 66 63 59 54 55 61 64 66 64 64 66 68 69 67 72 75 78 80 81 85 86 88 93 96 96 96 96 96 96 96 96 96 96 96 96 96 96 94 94 93 90
58 55 52 60 55 49 50 57 56 60 68 70 69 70 71 72 74 77 75 77 85 90 93 92 92 94 95 96 96 96 96 96 96 96 96 95 93 90 87 83 81 79 75 73
53 53 50 51 53 57 60 53 54 63 70 66 63 64 67 68 72 79 81 84 92 97 97 96 96 96 96 95 95 95 94 92 88 85 82 79 78 76 74 73 72 74 73 72
73 67 72 71 69 63 62 60 59 62 63 65 65 67 73 80 82 83 84 89 93 95 97 96 95 94 93 90 87 83 80 78 78 78 78 76 73 71 68 66 63 60 58 55
95 92 87 79 72 69 65 62 64 67 67 67 72 76 79 83 85 89 92 93 97 96 96 93 89 86 82 78 76 77 77 75 71 66 61 55 50 46 42 40 39 38 37 38
97 94 87 84 82 75 73 75 80 82 83 89 87 86 87 91 92 95 96 95 95 92 88 84 80 78 77 76 71 66 58 49 41 37 35 33 32 31 32 32 33 35 37 39
91 89 85 79 76 83 89 89 90 91 95 97 97 97 97 97 96 94 93 89 89 86 83 80 75 69 61 51 41 35 33 31 29 27 26 26 26 26 27 30 33 36 39 42
84 80 78 78 86 92 97 97 97 97 97 97 96 96 95 93 91 87 87 86 83 77 69 59 48 39 34 31 29 26 23 23 24 24 23 23 24 27 30 33 35 39 44 47
83 83 87 92 97 97 96 97 97 97 96 96 96 94 91 88 85 82 76 68 59 51 43 36 32 29 25 22 20 19 19 18 18 18 20 24 27 30 33 37 40 44 47 51
90 94 97 97 97 96 97 97 97 96 95 94 92 88 83 74 64 57 51 46 40 35 31 29 27 24 20 18 17 16 15 16 19 22 24 28 31 34 37 40 44 47 51 55
97 97 97 97 96 96 97 96 95 93 90 84 77 66 57 50 47 43 39 34 32 30 27 23 20 18 16 15 14 15 18 21 23 26 29 32 34 37 40 43 46 50 53 57
97 97 97 97 97 97 95 91 85 77 66 56 51 50 46 42 38 35 34 31 26 22 20 18 17 15 14 16 17 20 23 25 28 30 33 36 39 41 44 47 50 54 58 62

GFSNGP_prec_cthk_084.txt.gz
RH
73 76 71 58 55 51 53 49 52 45 47 45 43 38 46 45 43 41 43 42 43 42 38 36 36 36 35 33 35 37 41 40 39 38 37 40 46 51 60 63 66 68 71 73
68 65 73 62 50 53 51 52 51 49 48 47 44 39 40 45 52 45 43 49 48 46 44 40 36 38 36 35 35 38 39 39 39 38 39 41 49 57 62 64 68 67 62 63
64 73 79 88 44 38 50 52 49 51 50 52 47 42 43 44 48 48 43 48 44 46 45 43 41 37 38 38 36 39 42 42 44 46 50 49 51 55 58 61 60 59 59 60
84 86 97 57 50 43 41 46 48 46 46 53 50 49 46 47 42 42 39 37 39 43 44 44 43 41 42 40 39 39 41 42 45 49 50 52 52 60 64 63 60 58 59 61
86 89 93 75 69 56 54 41 44 45 44 48 54 53 48 49 45 44 40 38 46 44 44 42 42 42 44 43 44 42 40 46 49 50 53 56 61 68 68 65 56 61 64 70
90 91 92 66 79 78 67 59 46 51 53 50 60 58 51 50 47 44 40 37 47 46 41 42 44 45 45 48 49 46 48 52 54 60 64 65 66 65 60 63 67 74 76 76
90 90 78 66 79 89 81 60 61 61 59 55 58 55 56 54 50 48 44 44 44 42 44 49 50 51 52 52 52 50 53 58 60 61 61 63 62 67 70 72 71 73 75 76
98 97 90 77 80 97 90 80 70 67 62 61 60 62 62 59 57 52 52 52 50 49 54 58 57 57 59 65 65 60 62 64 63 65 68 70 74 75 74 73 75 78 79 80
83 83 75 68 79 83 83 91 80 67 69 73 74 73 70 65 63 62 59 61 62 62 63 65 67 68 67 67 67 66 67 70 72 74 74 76 77 78 80 81 82 86 88 89
67 58 60 66 65 73 69 68 78 78 77 82 82 79 73 71 73 69 68 67 68 66 68 71 72 72 72 74 73 74 73 74 78 79 79 81 84 85 84 86 89 92 95 97
66 63 62 59 71 74 68 62 67 76 85 88 87 86 82 76 77 74 75 77 76 74 74 77 76 82 81 80 79 78 81 83 84 85 87 85 83 87 90 92 93 95 97 97
59 69 74 60 59 71 67 63 63 70 86 88 86 89 85 81 79 85 84 84 80 85 85 85 84 87 90 90 89 89 87 86 86 85 83 84 86 88 89 91 92 94 95 97
51 68 61 61 58 63 62 65 67 72 77 83 89 87 89 89 90 90 90 89 85 93 95 97 95 95 96 95 92 89 84 85 85 85 86 87 87 90 93 94 94 93 93 93
55 47 47 53 58 60 60 56 69 77 76 79 86 90 84 83 92 94 97 94 94 96 97 97 99 98 95 92 89 87 88 87 84 85 88 90 89 90 90 90 91 90 90 90
60 51 51 49 55 61 63 60 66 73 76 83 87 85 79 81 88 95 98 97 96 98 98 98 94 95 95 94 92 88 87 85 86 88 92 91 92 91 90 89 90 91 91 90
48 48 57 58 63 65 66 63 69 69 76 89 83 78 78 82 83 88 96 97 95 94 94 97 95 93 92 89 88 87 84 82 81 84 88 89 89 87 84 81 77 74 71 67
48 43 49 64 58 62 65 67 69 71 72 74 71 65 71 81 87 89 92 93 93 93 95 94 91 89 87 87 86 85 84 86 87 85 82 80 77 75 72 65 56 50 46 44
51 45 48 60 60 63 70 72 75 78 76 74 65 68 72 78 83 90 93 91 88 84 83 83 84 86 85 84 82 83 82 81 81 79 76 67 54 45 41 38 35 32 30 28
58 57 68 75 70 69 80 80 76 71 70 70 68 68 80 79 80 80 79 77 75 75 76 78 80 83 82 83 83 82 81 76 62 48 42 39 36 33 30 26 24 22 20 20
62 60 71 89 87 83 91 90 87 80 81 73 71 75 81 80 78 82 83 84 85 85 86 86 87 91 90 86 78 64 49 43 40 36 33 30 26 23 21 20 19 19 19 18
67 73 88 96 95 94 92 89 86 86 81 86 84 85 86 83 83 85 90 89 91 94 96 96 92 85 70 56 47 43 39 35 33 30 26 23 22 20 19 19 19 18 19 21
78 85 88 92 94 98 97 98 92 90 94 94 91 91 89 88 90 91 95 97 96 96 92 80 64 54 47 43 39 35 32 30 26 25 23 21 20 19 19 18 18 20 23 24
96 97 97 97 97 97 97 95 94 93 96 97 93 90 90 91 96 96 96 95 89 74 60 53 47 43 39 35 32 30 27 25 23 21 20 19 19 17 18 20 22 23 25 27
97 97 97 97 97 96 98 97 97 97 97 95 92 92 94 95 96 93 85 74 60 54 46 42 39 35 32 30 28 26 24 21 20 19 19 17 17 19 21 23 24 26 29 31
96 96 97 97 97 97 97 97 97 95 95 93 91 91 96 91 78 69 60 54 47 43 40 35 33 31 29 27 25 22 20 19 18 17 16 18 20 22 23 25 27 29 32 35
97 97 97 98 97 97 97 97 95 93 94 96 94 85 73 65 59 55 48 44 41 37 33 32 30 28 25 23 21 19 18 16 16 17 19 21 22 24 26 28 30 32 37 40
97 98 97 97 97 97 97 96 97 96 86 74 67 63 58 54 48 44 41 36 34 32 30 28 26 23 21 20 18 16 16 17 19 21 22 24 25 27 29 31 34 39 41 44

GFSNGP_prec_cthk_090.txt.gz
RH
41 33 33 41 41 42 43 46 53 49 49 43 40 36 38 42 48 48 50 49 46 43 47 45 43 48 46 41 39 39 38 42 47 51 52 52 51 56 54 52 52 57 67 74
42 34 31 28 25 30 38 40 39 41 40 38 38 37 37 38 43 45 50 56 53 52 48 43 44 45 49 47 44 39 37 39 40 43 47 49 50 49 51 51 55 59 59 62
43 43 40 37 28 23 23 27 38 44 40 37 35 32 29 38 41 46 48 48 49 46 47 48 44 50 52 53 50 46 40 39 40 43 46 48 49 50 52 53 57 57 60 62
52 45 40 22 29 32 30 35 41 43 40 39 38 35 31 33 42 47 50 51 48 49 54 55 52 52 54 55 51 50 48 46 48 50 52 52 49 51 57 64 64 61 62 64
60 44 30 29 38 30 49 48 53 47 52 52 42 44 40 38 37 43 48 49 49 47 46 51 58 57 56 54 56 55 52 48 49 52 54 57 56 59 64 65 69 70 69 70
59 60 45 50 47 50 56 56 77 70 74 65 58 54 45 42 36 35 40 43 48 51 47 45 51 55 54 55 59 58 57 54 57 61 62 60 58 59 61 63 67 72 76 76
68 66 49 43 41 51 68 72 74 78 79 74 72 67 61 51 41 34 36 44 48 52 55 55 53 52 55 58 58 66 66 65 64 64 67 66 64 68 70 71 76 77 77 79
69 75 65 53 60 73 82 81 80 77 78 89 83 76 71 64 58 49 41 44 45 52 53 58 59 61 66 66 68 69 70 73 75 72 69 69 72 75 76 78 79 83 85 86
66 61 52 56 74 77 78 79 78 77 80 84 91 83 78 73 67 63 58 55 50 57 58 61 66 67 66 73 75 77 78 78 78 75 75 77 80 78 80 86 88 89 89 91
64 55 47 48 48 61 75 80 78 80 85 88 92 92 87 85 83 75 69 68 69 66 68 71 73 73 77 78 80 82 81 78 79 80 81 83 85 87 89 91 94 91 89 90
58 55 55 46 50 51 61 77 76 81 83 87 91 87 85 90 86 88 85 84 81 79 77 79 80 86 86 82 79 80 81 83 87 86 88 88 90 95 97 96 94 92 92 91
60 58 57 54 53 58 63 71 73 79 80 92 92 87 88 98 94 90 86 87 87 90 90 91 89 90 85 85 88 89 89 89 88 93 94 98 97 96 96 95 93 90 88 86
59 57 58 56 56 61 66 69 71 77 86 94 94 90 97 96 97 94 94 93 93 95 98 98 97 95 94 94 95 95 96 96 98 97 97 97 96 95 94 93 89 87 86 83
59 59 52 58 56 55 62 64 69 76 87 95 93 90 92 96 98 98 99 98 99 98 98 99 97 98 99 99 99 98 98 98 97 97 95 93 91 90 89 87 84 81 80 73
61 60 55 54 53 51 47 54 68 75 82 92 88 90 94 95 97 98 97 98 99 99 98 99 99 98 98 98 98 98 97 96 95 91 89 86 84 84 82 79 76 69 59 49
63 61 61 58 53 51 48 50 58 74 78 82 95 93 96 93 94 92 97 91 94 97 97 98 98 97 98 97 98 97 96 92 90 87 83 79 74 71 68 60 53 47 44 39
64 61 59 57 57 55 52 47 57 61 76 84 85 98 94 88 85 84 91 99 89 94 96 97 97 97 97 96 94 90 88 85 81 77 74 69 59 50 48 48 49 47 34 29
67 65 62 58 56 57 52 47 49 64 74 85 89 97 91 90 87 84 84 84 98 89 93 97 97 97 93 85 78 72 71 73 69 59 51 47 46 44 43 45 44 41 38 29
68 66 62 59 56 58 56 55 58 57 73 89 90 98 97 89 87 84 82 83 81 78 79 81 81 76 72 75 75 71 63 58 51 46 45 44 42 41 39 37 36 34 32 29
67 69 66 64 61 60 59 63 65 69 78 87 97 99 92 91 92 87 89 89 88 85 86 86 85 80 73 67 61 56 50 47 49 47 42 39 38 36 34 32 30 29 28 26
75 72 70 69 66 63 61 65 71 77 86 94 97 98 98 92 91 89 93 87 88 90 92 85 78 72 64 58 55 51 51 49 44 42 39 35 33 33 32 30 29 27 25 23
79 75 75 75 72 69 70 70 73 79 95 97 96 93 97 97 98 97 94 93 92 87 82 72 67 61 59 55 53 51 47 43 41 39 35 34 33 31 29 27 25 23 21 19
95 91 90 87 81 76 77 82 81 80 96 97 95 96 96 96 97 94 93 86 80 74 69 63 60 57 52 52 49 44 42 40 37 34 33 32 30 27 25 24 22 20 19 21
97 97 94 90 87 87 88 92 95 93 96 96 96 95 92 95 94 92 88 79 74 66 63 61 56 53 50 45 42 40 37 35 33 32 30 27 25 24 22 20 19 20 21 22
98 97 93 94 97 98 97 96 97 97 97 97 97 97 97 96 91 80 73 68 64 59 54 52 48 45 43 41 38 36 35 32 30 28 27 24 21 19 19 19 20 22 23 24
98 97 97 97 98 98 97 97 97 97 97 97 97 96 89 79 74 66 63 59 55 53 51 47 45 43 40 37 35 34 32 30 28 25 22 19 18 18 20 21 23 24 25 27
97 97 97 97 97 97 97 97 97 97 97 96 89 80 72 66 63 59 55 53 50 46 44 44 42 40 38 36 34 32 29 27 24 21 19 18 19 20 22 23 25 26 28 30

GFSNGP_prec_cthk_093.txt.gz
RH
26 25 37 40 43 39 42 52 54 51 50 48 47 44 38 39 43 48 51 48 46 45 48 48 47 47 46 46 40 38 39 40 40 47 48 49 50 51 51 50 58 63 63 67
29 26 23 22 21 24 27 31 39 49 47 40 36 35 35 33 34 38 46 51 55 49 48 49 46 47 48 45 44 42 41 41 41 43 47 51 52 52 53 53 57 58 59 57
35 29 35 38 24 20 18 18 26 33 36 40 46 41 38 28 28 34 40 49 52 54 52 50 53 53 52 51 52 47 46 46 43 43 47 46 48 51 53 56 59 57 55 58
48 45 43 23 23 23 23 34 28 21 34 49 48 47 38 30 28 30 41 48 51 51 55 55 54 52 51 55 57 53 52 48 46 45 44 46 50 54 52 53 56 60 66 71
55 47 34 29 32 45 33 37 53 54 53 53 53 48 35 33 38 45 35 43 49 52 51 50 51 51 55 61 66 65 59 58 57 55 52 51 50 53 56 57 60 63 68 69
61 57 51 53 53 39 41 52 63 64 69 75 71 55 51 54 48 47 40 36 42 48 50 53 51 52 56 62 63 69 72 65 63 62 59 59 60 62 64 64 63 64 66 70
65 64 50 43 44 40 53 73 65 60 58 59 62 62 57 64 59 55 47 37 37 42 47 52 52 53 59 55 53 61 66 69 69 69 68 68 67 70 71 72 69 66 73 77
69 74 65 47 57 57 63 62 56 60 57 54 57 64 63 68 68 60 54 47 44 46 46 47 49 51 55 57 58 63 66 69 72 73 79 77 79 79 79 77 73 77 80 78
65 63 63 62 56 50 53 61 65 62 63 62 64 71 76 76 81 73 67 61 51 45 46 47 51 55 60 63 64 67 69 73 74 79 84 85 84 86 85 81 80 79 87 84
67 67 62 65 51 48 45 56 61 64 74 73 77 80 82 97 95 85 81 76 68 61 56 54 57 57 62 68 72 74 76 80 85 84 87 88 87 89 84 84 88 91 94 92
62 58 58 56 53 52 52 52 54 62 64 77 78 88 92 97 94 87 86 84 81 76 73 69 67 68 75 80 81 82 84 86 89 90 91 91 86 85 90 91 98 95 97 98
65 64 61 58 57 60 59 57 57 54 68 84 84 96 95 98 95 89 88 89 91 88 85 85 85 88 87 91 91 90 92 94 92 88 91 93 94 97 98 98 97 97 97 97
68 63 60 56 56 59 59 62 57 56 68 80 83 94 94 96 92 92 95 96 90 92 96 96 94 93 96 93 93 92 88 89 95 97 98 99 98 97 98 97 97 97 95 92
68 64 60 61 57 57 58 60 58 62 69 80 87 92 97 98 92 95 97 98 93 88 89 92 95 91 99 99 99 99 99 99 98 98 98 97 96 97 97 93 90 86 83 79
69 68 66 63 59 59 58 51 48 50 61 75 86 91 95 98 93 95 95 93 98 98 97 97 98 98 96 98 98 98 98 98 98 97 96 95 95 94 92 89 85 79 69 59
71 69 64 65 62 61 60 55 55 53 51 59 78 85 93 94 96 96 95 97 98 98 98 97 97 98 98 98 97 98 98 96 95 94 93 92 91 89 85 76 63 53 46 44
74 70 66 63 61 59 58 56 55 55 50 50 60 79 89 92 98 87 88 89 96 98 97 97 97 97 97 97 98 97 94 93 84 75 70 68 62 54 49 49 52 44 38 37
71 69 67 63 61 59 56 56 54 54 52 47 57 71 83 92 96 97 90 90 91 95 97 97 97 97 97 97 96 92 84 72 68 63 55 52 52 51 51 50 49 49 43 35
70 68 67 65 62 60 59 57 57 57 58 54 56 64 90 93 97 98 93 88 89 87 86 89 88 84 79 76 76 76 68 60 53 50 47 46 47 46 46 45 45 44 42 40
65 63 62 62 63 63 64 64 64 61 61 62 65 63 71 88 95 97 97 95 92 91 92 90 84 80 78 73 64 58 55 51 48 46 46 44 39 38 39 39 43 42 40 38
66 66 65 64 65 65 63 66 66 65 63 63 71 73 75 90 97 96 97 95 94 92 90 85 78 71 69 63 57 54 51 49 47 46 44 43 45 45 44 42 40 39 37 33
67 68 68 69 70 71 70 74 74 71 66 66 77 80 89 95 97 97 97 97 97 92 86 77 72 66 62 60 57 53 50 48 48 48 47 46 44 43 41 37 33 29 27 25
73 78 86 88 88 83 80 79 78 72 70 74 79 85 93 94 96 97 97 97 92 84 77 71 66 62 58 53 53 52 48 45 42 40 40 40 39 36 32 28 25 23 23 21
78 83 91 96 96 96 94 89 83 81 84 87 85 82 94 97 97 97 96 87 83 75 72 65 63 57 54 51 46 44 44 43 40 37 36 34 32 29 26 24 22 22 20 20
88 91 94 95 97 95 93 93 91 90 93 93 94 94 95 97 97 95 87 81 75 72 65 57 54 52 51 48 45 43 42 39 36 35 32 30 28 26 24 22 20 19 20 21
95 96 97 97 97 97 97 97 98 98 95 96 97 98 98 97 91 85 77 73 66 64 61 58 54 48 44 43 42 40 38 36 34 32 30 28 26 24 22 20 19 19 21 22
97 98 97 98 98 98 98 98 98 98 98 98 98 97 90 84 78 75 70 66 62 56 54 49 46 45 44 42 40 38 36 35 33 31 29 26 24 21 19 19 20 21 22 24

GFSNGP_prec_cthk_096.txt.gz
RH
35 52 48 44 44 47 50 54 56 46 50 53 56 55 51 49 51 48 51 54 55 54 56 61 55 52 52 51 54 49 48 43 41 40 41 45 46 48 50 53 56 58 59 60
33 27 32 38 39 38 40 43 43 44 41 41 38 38 35 36 44 44 47 46 51 53 57 54 55 53 53 54 52 51 47 43 43 43 43 44 47 51 56 58 59 58 60 61
46 35 26 27 20 22 20 21 24 28 27 35 38 35 37 39 37 48 48 45 45 51 55 61 57 55 54 52 49 50 49 47 48 48 49 48 51 55 56 56 58 57 58 61
50 52 58 33 27 31 31 30 29 39 29 21 35 41 42 48 48 41 45 46 47 52 56 60 62 60 58 56 54 54 52 55 58 56 54 55 56 59 56 53 53 56 58 59
57 46 38 35 33 36 52 48 53 55 48 45 46 45 40 45 43 46 45 46 46 44 49 51 51 52 56 60 61 59 53 55 57 58 59 61 61 58 56 59 60 61 62 64
61 60 54 56 50 42 40 51 55 52 55 53 49 51 45 51 47 44 48 48 50 45 46 47 45 52 58 63 63 65 65 63 61 65 63 63 65 64 66 65 68 71 73 75
72 72 49 70 58 52 50 64 62 57 57 57 57 56 54 58 51 48 48 48 49 48 46 46 45 50 56 61 63 62 64 67 67 66 66 70 71 75 73 75 77 76 77 78
70 67 63 43 49 55 58 56 57 62 61 56 55 54 52 47 49 53 54 56 50 50 48 47 49 51 55 58 59 64 68 68 72 73 71 79 81 83 81 82 84 86 84 89
61 56 52 59 61 56 51 47 47 55 54 53 54 56 57 65 67 60 66 61 59 60 56 53 54 58 59 63 66 68 71 74 76 78 79 81 85 88 89 93 87 98 97 95
86 76 78 77 70 68 58 50 48 52 54 55 50 58 70 70 76 77 74 76 75 68 64 61 55 58 64 66 69 69 73 77 82 84 85 87 90 91 93 91 91 94 99 99
90 72 67 67 64 60 60 60 56 53 52 48 47 58 73 78 89 92 90 84 90 82 73 69 67 64 57 60 64 68 74 78 83 86 88 91 93 97 99 99 99 97 98 98
81 79 72 81 72 74 66 60 56 54 48 49 48 62 73 81 93 96 95 96 92 84 81 79 77 75 75 70 69 71 76 83 89 92 94 96 98 97 97 97 99 99 97 97
84 75 75 71 66 57 59 62 58 55 48 49 51 76 80 87 89 97 89 94 89 87 84 85 86 85 83 86 90 87 84 88 91 96 99 99 99 98 98 98 97 97 97 97
80 70 68 63 61 57 57 58 53 51 49 53 56 68 83 90 92 93 98 97 94 92 96 95 93 94 95 93 91 95 98 99 98 98 98 97 98 97 97 97 97 94 90 88
74 70 70 65 66 67 68 60 52 51 50 51 56 59 71 86 90 93 93 98 98 93 96 97 95 93 94 98 97 98 99 97 97 97 98 96 96 96 97 96 95 92 82 70
75 73 69 67 66 63 60 57 57 55 51 50 48 49 56 74 84 92 91 93 94 97 97 98 98 98 97 98 98 97 96 98 95 98 95 95 93 91 90 83 69 55 49 51
76 70 66 67 67 65 61 58 56 56 53 50 51 51 49 58 77 89 90 95 93 96 97 97 98 98 98 97 98 97 96 96 97 95 89 85 79 69 59 51 44 39 39 41
77 73 70 69 67 64 62 59 58 56 55 54 54 55 54 53 59 79 97 96 94 93 93 97 97 97 97 97 96 96 95 94 89 82 76 65 58 51 48 44 40 37 36 36
74 72 71 68 65 63 62 61 61 59 59 59 58 57 59 59 58 67 86 94 92 90 92 94 92 93 93 92 89 85 82 76 66 59 54 50 50 49 46 42 42 42 41 38
69 67 65 64 62 62 61 61 62 62 61 62 62 61 60 62 63 66 70 90 97 96 93 93 97 95 91 88 81 74 64 58 55 51 48 47 46 44 43 43 42 40 37 33
63 62 62 61 61 60 59 60 60 60 62 63 64 67 66 66 67 69 72 80 94 97 96 97 94 89 84 75 69 61 58 56 53 51 49 48 47 44 42 40 37 35 34 32
65 64 62 60 60 62 63 68 70 68 67 67 70 71 72 69 70 76 81 89 96 97 97 93 86 79 75 69 65 62 57 53 51 49 46 43 42 41 39 38 36 33 30 28
67 64 63 61 62 65 70 78 85 83 79 76 78 80 78 76 75 82 89 97 97 95 88 86 80 75 71 64 60 57 55 53 47 45 45 45 42 39 36 34 31 29 27 25
68 66 65 68 72 74 82 90 94 94 93 90 86 84 80 79 82 87 91 97 96 88 84 77 74 69 67 63 57 55 52 49 45 44 41 39 38 36 33 30 28 27 25 23
71 73 76 80 84 90 94 96 96 96 96 94 92 93 94 95 97 94 90 89 86 85 81 75 67 63 60 57 54 49 46 45 44 40 39 37 35 33 30 28 26 25 24 22
94 93 92 93 94 96 97 98 95 96 97 97 97 98 98 98 97 97 95 88 82 76 72 69 66 61 55 54 51 46 45 43 40 39 37 35 33 31 29 27 25 24 22 20
97 97 96 97 97 97 97 98 98 97 97 97 97 98 98 98 94 89 85 81 78 74 68 63 59 55 52 48 47 46 45 42 40 37 36 34 32 30 28 26 24 22 20 20

GFSNGP_prec_cthk_102.txt.gz
RH
64 64 64 68 60 65 75 83 70 64 65 65 67 70 76 77 74 80 87 80 70 72 82 77 77 72 71 59 53 51 44 42 44 45 42 42 47 51 56 60 63 65 66 68
61 57 62 62 59 61 59 62 76 59 54 57 55 63 64 75 76 83 88 84 77 71 72 80 79 80 73 71 70 65 60 50 45 45 46 46 44 45 48 51 53 55 57 59
67 54 46 54 52 53 54 52 63 68 68 61 67 64 66 70 71 77 75 79 83 78 75 70 72 81 73 69 73 74 72 64 56 52 49 46 48 50 50 51 54 56 55 54
69 51 62 46 42 45 63 65 55 56 65 72 75 71 62 68 66 67 69 70 69 74 69 70 62 59 64 78 78 78 72 68 67 59 56 54 55 56 57 61 63 62 58 58
68 62 47 45 57 57 58 68 61 55 54 59 65 69 69 63 60 58 57 58 59 56 58 62 64 59 57 57 58 69 74 71 70 67 67 63 64 63 66 68 70 71 72 72
65 63 64 55 63 54 53 70 61 57 53 49 45 56 56 62 61 58 57 54 53 51 47 47 52 56 56 58 56 58 65 80 80 76 73 71 72 72 71 74 75 74 81 82
60 71 67 61 61 52 62 64 59 57 52 51 49 49 53 52 46 46 43 42 41 36 38 43 42 44 47 56 63 62 63 68 75 81 85 84 86 88 86 83 83 83 88 93
67 77 67 60 49 57 70 59 52 52 50 44 43 44 44 42 40 42 43 42 39 37 36 40 40 39 42 47 57 61 62 60 65 83 93 89 92 95 96 94 91 87 92 96
58 63 57 60 66 76 72 67 64 59 52 46 42 42 39 38 40 41 43 44 43 40 40 37 34 36 38 40 47 58 62 66 66 67 78 90 92 92 98 98 97 96 97 98
65 58 71 72 71 76 85 76 73 66 59 50 45 38 33 33 35 37 42 43 41 43 44 43 41 43 43 43 43 46 55 63 67 68 75 82 86 91 94 97 97 96 98 95
87 81 78 73 73 74 79 75 72 67 62 57 45 35 35 36 40 43 45 45 45 48 47 48 49 51 54 53 51 51 54 58 63 66 71 75 82 86 91 95 93 98 92 89
98 92 86 85 85 81 79 78 74 68 63 54 47 39 36 39 42 48 53 52 51 53 52 51 53 59 64 67 67 65 66 67 69 72 73 76 80 87 89 92 96 92 88 90
98 96 98 93 96 92 88 81 75 69 57 47 45 43 39 41 42 43 53 59 62 68 68 67 68 67 77 82 85 87 82 80 83 82 84 84 83 85 89 90 92 91 94 97
98 98 98 98 95 93 85 80 74 62 54 48 44 43 43 41 44 47 54 66 74 81 79 77 77 75 83 91 93 93 93 93 92 90 90 89 88 88 88 91 89 87 90 94
95 96 97 97 93 87 81 75 70 61 57 53 49 47 43 42 42 45 47 55 69 78 84 81 81 82 84 91 92 97 98 98 98 98 98 97 96 95 94 94 93 94 95 94
92 90 85 82 81 76 70 66 62 58 60 60 57 54 50 49 49 49 49 50 54 61 76 85 86 87 91 95 97 97 97 97 98 97 96 95 97 98 96 97 96 86 76 69
87 89 87 81 76 72 68 68 66 62 62 62 61 58 55 54 53 52 51 54 56 58 72 90 92 92 93 93 96 97 97 97 97 97 97 97 97 97 93 79 71 65 58 54
77 79 80 76 74 72 70 70 69 70 68 65 64 61 58 58 57 57 57 56 56 59 66 82 88 88 97 97 96 96 97 97 97 97 97 96 86 73 66 62 58 54 51 48
84 81 78 74 72 73 73 74 74 73 70 68 66 64 61 60 58 57 56 56 57 58 64 68 72 85 92 97 97 97 96 97 97 94 82 68 63 59 57 54 52 50 46 43
86 82 78 75 76 79 79 77 76 74 71 69 65 63 61 60 60 60 58 58 60 63 65 70 72 79 88 97 96 97 96 90 79 69 64 61 58 55 52 49 47 43 41 38
83 80 77 76 75 73 72 71 70 67 64 62 60 60 60 60 61 66 67 65 63 63 66 71 72 76 79 84 93 89 83 79 71 66 63 57 55 52 49 47 43 41 40 38
74 71 69 67 65 64 62 61 61 61 61 62 61 62 64 66 69 73 74 75 75 73 73 75 77 79 84 83 79 82 78 75 71 67 62 58 56 55 48 45 45 43 42 39
71 67 65 63 62 62 63 63 63 63 63 63 63 65 67 70 80 84 86 86 86 85 82 81 80 82 79 82 79 78 71 67 66 64 58 56 54 50 47 45 44 43 41 40
67 65 65 66 66 65 65 66 67 68 68 68 68 69 75 82 91 92 91 94 96 95 90 88 90 89 84 82 86 82 77 72 70 66 59 57 55 50 46 46 45 44 42 40
70 71 75 76 76 77 82 84 82 78 77 78 79 84 90 96 97 94 93 95 96 94 93 92 89 87 84 81 81 79 74 68 65 63 59 57 55 51 48 47 47 45 43 40
85 86 87 88 88 88 91 94 96 95 94 93 94 96 97 98 96 95 96 94 95 97 91 89 86 85 80 75 75 73 69 64 59 57 57 56 53 48 46 45 43 42 40 38
89 90 90 90 91 93 95 96 97 98 98 98 98 98 98 99 99 98 96 97 98 95 92 89 83 79 73 69 66 63 60 59 57 54 49 47 46 45 44 43 42 40 39 37

GFSNGP_prec_cthk_105.txt.gz
RH
85 71 77 84 68 66 72 74 73 68 57 59 70 77 76 77 85 85 88 87 82 78 86 85 86 81 73 65 59 55 52 52 53 52 47 40 42 48 53 57 59 61 63 63
88 76 71 80 78 68 68 74 77 77 62 66 74 81 73 83 87 85 89 89 86 85 80 85 88 85 81 78 74 73 64 57 55 55 53 53 50 46 49 52 55 61 64 66
87 70 60 65 68 65 62 70 70 81 78 73 75 75 76 80 81 84 85 86 83 84 83 78 81 83 82 77 81 82 80 76 75 64 56 56 55 54 52 50 49 50 52 55
80 70 60 58 57 64 66 63 60 66 80 86 77 78 77 76 75 77 79 75 79 76 80 77 74 74 78 80 80 87 85 82 81 80 75 64 60 58 58 60 59 56 55 56
70 73 57 54 68 65 66 75 71 70 74 86 78 78 81 82 81 78 72 72 74 73 71 68 65 63 66 72 74 76 79 75 73 76 81 83 77 67 65 65 66 66 68 68
67 72 69 50 48 53 66 86 77 84 83 78 77 73 80 84 75 70 67 68 64 61 61 56 52 56 55 54 57 64 65 67 68 75 81 83 86 83 77 76 74 72 76 75
64 68 52 51 49 47 70 81 79 80 79 72 74 72 70 64 56 52 54 58 59 57 52 47 43 39 41 46 45 48 60 61 63 69 81 84 85 89 90 87 85 84 79 77
61 67 57 39 47 50 72 74 72 72 68 62 66 64 55 51 43 42 43 42 42 48 47 48 47 44 37 40 44 43 51 53 60 65 68 78 89 88 93 95 95 94 92 92
46 40 34 44 60 66 72 67 66 64 63 61 61 55 45 42 41 38 41 44 45 45 42 38 36 36 37 38 41 42 43 46 55 60 65 66 71 85 93 93 97 98 97 98
57 40 48 63 65 76 74 70 77 77 70 64 60 53 44 39 42 45 48 48 47 44 43 43 40 38 38 39 42 43 43 44 48 53 60 66 71 77 80 79 82 84 91 93
74 71 60 72 82 80 82 89 84 80 75 67 60 52 46 41 39 38 40 47 50 50 49 48 46 44 46 45 50 51 51 51 49 51 55 58 66 73 79 79 81 83 86 88
94 95 97 93 85 82 84 85 84 77 72 65 55 46 42 39 40 38 37 40 46 50 51 51 48 45 45 47 49 54 58 58 60 60 59 63 66 68 73 74 76 74 74 83
98 98 96 96 96 85 88 88 83 76 67 58 48 43 42 43 41 39 39 40 46 50 52 53 52 49 47 50 55 59 65 67 71 73 75 75 75 77 78 76 75 77 83 84
97 98 99 99 99 98 98 91 84 77 70 59 51 47 45 44 41 39 37 39 43 45 51 56 57 56 58 57 60 65 72 77 81 83 85 88 90 90 89 92 82 84 96 86
96 95 98 98 94 93 88 82 79 74 70 62 53 52 50 49 46 44 43 42 42 41 41 52 55 58 63 63 64 69 79 85 89 95 96 97 92 91 95 97 97 97 96 93
94 97 94 90 88 84 81 74 72 70 67 66 58 55 54 53 50 48 47 46 42 40 43 50 56 63 70 71 70 74 82 92 92 95 96 97 96 97 97 97 97 97 96 87
84 83 81 82 80 78 72 70 69 67 66 67 64 61 59 57 54 50 47 45 44 44 48 53 60 66 66 72 83 86 89 92 96 96 96 97 97 97 97 97 96 90 80 70
78 78 80 77 73 71 73 70 66 68 66 65 65 64 63 61 57 52 49 48 50 51 51 51 58 62 66 70 77 87 94 95 95 95 96 96 96 97 89 78 69 65 63 59
78 75 73 70 69 69 68 66 66 68 66 66 68 66 65 62 58 55 56 56 54 51 51 56 59 61 67 71 77 85 93 95 96 97 96 91 80 72 67 64 61 58 55 52
77 74 72 70 68 68 67 66 66 68 69 68 70 69 65 64 62 59 58 56 55 56 56 56 59 63 67 71 77 85 90 94 96 89 77 71 68 65 61 57 54 52 48 46
79 77 75 74 73 71 69 68 68 68 71 72 69 68 66 65 62 59 58 58 60 64 64 65 64 67 70 73 78 82 82 76 76 73 71 69 66 63 59 55 54 52 49 45
77 75 72 71 69 68 67 67 66 66 66 65 65 65 64 63 62 62 62 63 66 70 73 74 74 76 76 78 81 80 77 74 72 75 76 69 64 63 63 58 55 50 48 46
72 69 66 64 63 62 62 63 63 62 63 63 64 65 65 65 66 67 66 69 72 78 82 86 86 87 87 82 77 76 76 73 70 71 73 70 65 60 56 54 52 49 47 46
70 67 64 63 63 64 65 68 69 69 70 72 73 71 69 69 70 72 73 74 81 89 88 86 90 95 93 84 74 74 77 76 75 75 76 72 68 62 59 56 52 52 52 50
71 67 66 69 70 71 73 75 77 78 80 83 84 85 82 79 78 79 80 86 94 95 91 89 90 94 93 88 88 88 88 83 77 76 72 69 67 65 62 59 58 55 50 48
74 75 76 77 79 79 81 82 82 84 86 90 92 94 94 93 93 94 95 97 98 96 94 94 93 93 88 83 79 81 82 79 75 71 67 64 62 60 57 54 50 49 47 46
82 84 86 86 85 86 86 87 89 90 92 94 96 97 98 98 98 98 98 98 98 99 99 98 97 94 90 86 81 77 73 70 69 69 64 59 56 53 50 49 49 47 46 44

GFSNGP_prec_cthk_111.txt.gz
RH
93 76 69 81 80 79 81 64 47 29 36 49 57 65 64 61 63 64 65 64 66 71 79 83 92 97 95 91 91 76 60 42 38 39 43 44 49 51 53 56 57 57 62 68
89 81 67 68 78 75 64 72 67 59 58 57 55 63 67 62 66 69 74 74 78 82 79 90 94 97 98 97 91 78 69 53 48 48 45 45 46 48 51 54 56 61 62 59
54 68 78 77 81 77 70 69 65 60 61 64 69 69 71 70 71 78 80 79 75 81 82 86 94 93 96 96 91 85 82 64 58 60 58 54 50 48 49 51 54 55 59 63
56 65 79 63 81 70 75 81 77 71 73 74 77 79 80 81 78 81 81 79 72 80 79 80 87 91 93 93 95 89 83 71 76 76 72 69 65 61 56 52 50 54 55 58
57 56 59 71 77 81 80 85 77 76 82 85 85 81 84 86 84 80 77 73 70 74 76 75 75 82 87 85 85 92 88 80 80 82 86 83 78 74 74 70 66 56 55 58
48 55 62 68 62 62 80 80 87 81 86 80 84 94 95 91 86 78 86 75 74 72 68 63 68 73 71 70 74 80 90 85 86 83 83 86 81 84 85 83 82 83 76 64
55 52 38 52 62 64 79 81 92 90 95 95 96 93 85 81 70 64 58 57 55 55 58 56 61 62 61 66 62 65 75 78 81 79 85 84 79 78 82 80 80 83 85 85
75 64 44 44 55 72 82 86 91 87 87 88 88 79 74 66 60 57 53 52 52 49 51 51 50 57 57 56 65 58 53 56 57 63 68 77 75 79 76 74 76 78 86 88
72 59 41 46 60 67 71 87 90 85 83 80 83 75 66 59 53 51 51 50 50 46 46 51 47 52 55 52 51 54 58 53 48 48 47 55 64 67 73 74 75 77 77 80
89 73 63 53 57 66 68 76 80 83 82 77 76 73 65 61 56 52 49 44 41 39 39 45 43 42 45 48 44 44 45 49 49 50 50 45 49 60 65 71 76 77 77 79
88 83 88 63 59 64 71 89 87 81 78 75 75 73 66 60 54 50 45 43 43 40 42 46 45 44 43 42 44 42 43 44 42 41 42 44 47 49 53 62 68 74 77 80
98 88 90 76 63 77 85 94 94 89 91 84 77 74 67 61 56 52 48 44 41 39 40 38 40 45 46 47 47 47 49 48 49 49 49 53 54 54 54 57 63 70 78 77
98 98 99 89 83 94 98 98 99 95 98 90 86 77 68 62 56 50 47 42 41 41 39 37 35 38 43 44 47 48 48 50 51 51 51 55 57 59 61 62 63 70 73 77
98 98 98 96 98 95 93 97 97 98 94 87 82 76 68 61 55 52 50 48 47 44 41 38 38 39 42 45 46 46 44 49 54 57 60 61 63 65 68 72 74 76 75 81
98 97 97 98 98 98 98 93 94 94 90 86 85 80 73 68 57 54 52 51 47 46 44 43 45 44 44 44 44 44 44 47 53 58 63 65 67 72 76 79 80 83 87 86
89 92 93 96 96 96 97 97 97 93 91 88 82 74 70 68 64 57 55 52 50 48 47 48 48 47 49 48 48 48 49 52 54 54 58 66 71 77 79 86 93 96 96 96
81 81 84 86 89 92 90 94 92 89 86 81 76 73 70 66 64 63 57 53 52 52 52 52 52 52 52 52 53 52 51 53 56 56 60 64 66 71 76 81 86 92 95 96
75 77 80 80 81 80 78 77 80 80 77 73 70 67 66 65 64 64 62 60 56 54 55 55 55 55 56 57 58 58 57 59 61 62 65 70 73 76 78 81 86 91 91 89
70 76 77 72 68 65 62 61 62 63 63 64 64 65 64 63 62 62 63 61 58 58 58 57 57 58 59 62 62 61 62 63 64 65 67 72 75 77 79 78 78 77 78 76
78 78 75 70 68 65 66 66 67 66 66 64 62 61 60 61 62 62 63 63 62 62 62 62 62 62 62 64 66 65 66 67 68 68 68 68 69 66 65 67 65 67 68 65
84 81 77 73 71 70 69 68 68 69 68 68 67 66 66 65 65 65 66 67 68 69 69 70 69 69 67 68 69 68 69 70 71 65 61 57 56 55 53 57 57 59 57 56
86 83 80 78 74 71 69 68 68 67 67 67 67 68 68 70 71 71 70 70 71 72 73 74 73 73 73 74 72 71 71 68 65 64 63 61 61 59 58 56 52 53 60 60
86 84 81 78 74 72 71 68 66 67 67 69 70 70 71 73 74 72 71 72 73 75 75 74 74 75 75 75 74 69 67 64 66 64 61 60 58 59 62 63 63 60 57 58
85 80 79 78 77 74 71 69 68 67 68 68 68 69 70 71 73 74 74 75 77 79 80 82 82 81 78 78 77 75 74 76 77 71 71 74 70 66 63 64 65 66 67 63
82 81 80 81 79 77 75 74 73 72 71 72 73 74 74 75 75 77 78 79 81 83 84 87 89 89 84 78 76 72 73 76 80 79 73 73 74 73 74 72 71 74 73 70
82 82 81 80 79 80 80 79 76 74 74 75 77 78 79 81 83 84 85 86 88 90 91 92 94 97 96 95 95 95 94 91 89 87 84 82 81 79 76 73 70 68 63 60
87 86 86 85 84 84 84 83 82 82 81 82 84 86 86 87 88 90 91 92 94 96 97 98 97 98 96 96 97 96 93 90 88 84 81 80 79 75 71 67 65 64 61 59

GFSNGP_prec_cthk_114.txt.gz
RH
83 84 69 82 92 90 68 51 55 38 40 53 52 59 64 64 64 62 61 58 58 55 59 64 72 79 86 85 85 87 82 74 64 58 47 45 45 45 46 48 52 58 63 70
68 82 69 65 77 76 79 74 55 48 39 51 64 63 82 73 67 68 59 59 64 60 64 68 80 79 85 91 93 92 88 77 69 61 48 45 45 46 47 49 51 53 56 61
65 73 79 76 77 70 70 72 71 70 63 56 53 63 73 70 67 66 65 62 62 65 66 69 74 89 85 90 95 97 95 85 77 66 54 48 46 48 48 49 51 52 53 56
58 72 88 76 78 74 70 69 73 67 64 73 72 81 77 73 73 77 79 70 69 69 72 72 73 84 88 91 97 99 95 89 80 74 69 62 53 50 50 52 52 53 54 56
64 67 61 83 78 83 78 70 72 75 82 87 85 81 85 86 81 77 75 74 72 68 72 70 72 71 82 89 89 95 98 95 88 84 84 77 77 74 66 59 57 60 61 60
50 59 68 76 70 75 79 93 90 86 87 91 89 92 92 90 85 81 81 79 75 73 69 63 65 70 67 80 85 88 91 95 93 93 88 84 84 86 85 83 77 75 74 75
56 52 40 61 65 71 90 94 94 94 94 91 88 96 98 95 85 74 69 66 62 59 58 59 60 65 64 67 83 82 84 88 93 90 88 86 87 87 87 90 88 88 87 84
64 58 54 39 66 79 82 85 98 96 94 92 93 91 88 79 67 60 56 56 55 54 53 53 54 58 65 63 65 82 72 76 86 88 83 83 83 89 90 90 89 90 89 87
74 60 58 51 62 82 86 89 98 95 92 90 90 80 73 66 58 55 52 49 46 47 42 45 53 52 58 63 61 60 76 71 70 79 83 81 82 81 86 93 92 88 86 82
87 84 76 64 57 75 86 96 99 95 85 85 79 76 70 63 58 54 51 47 46 43 40 42 49 45 46 58 55 53 53 62 71 62 56 64 68 70 76 84 84 85 90 89
91 86 82 77 63 65 77 86 92 90 84 75 71 68 66 62 58 54 52 51 49 49 44 41 39 43 42 44 50 48 45 50 53 55 55 55 53 54 57 58 58 65 72 75
97 93 91 89 73 63 68 82 94 96 85 84 78 75 71 64 59 54 52 49 46 44 44 43 40 40 46 48 46 46 48 50 50 48 49 54 54 51 52 52 54 60 62 66
98 98 97 98 78 67 70 85 98 98 92 89 88 80 72 65 58 54 51 49 46 43 40 38 36 39 42 45 44 46 46 48 50 53 53 50 50 52 53 56 59 61 61 65
98 98 97 97 91 77 79 98 98 97 92 98 92 79 73 67 61 55 52 50 46 43 42 41 42 42 41 42 41 41 42 46 51 53 54 55 58 59 59 60 62 63 66 68
96 94 94 94 92 90 95 93 93 94 94 92 86 82 78 72 65 57 53 51 49 46 44 44 45 44 43 42 41 41 41 44 46 48 51 55 58 61 63 64 65 67 71 73
89 89 92 91 90 90 91 93 91 93 90 94 89 84 80 73 69 65 58 52 50 49 49 48 48 47 45 44 44 45 44 45 46 46 50 54 56 58 63 66 70 75 77 81
77 83 89 89 89 89 93 94 94 95 91 91 92 83 77 72 69 66 62 59 54 51 52 51 52 52 51 51 51 50 48 48 50 50 53 55 55 56 59 62 63 64 67 73
70 76 84 86 89 87 86 86 88 92 93 89 88 79 72 68 67 65 63 60 58 57 55 53 53 54 54 53 54 55 54 54 54 54 57 59 61 64 65 66 67 68 69 71
65 69 78 84 83 80 75 71 69 70 73 75 75 72 68 65 63 62 61 61 61 60 56 55 55 56 56 57 57 59 60 60 61 63 65 66 66 65 66 69 71 70 68 70
70 72 76 77 74 71 68 67 66 65 65 64 62 61 60 58 57 57 57 58 60 61 60 60 60 59 60 62 64 65 66 65 66 69 70 70 69 68 67 66 63 60 56 55
81 79 79 77 73 72 70 68 67 66 66 65 64 63 63 63 63 62 61 61 61 62 63 64 66 67 67 67 68 70 70 70 72 74 75 72 66 62 60 59 58 56 51 49
90 88 85 84 82 79 75 72 69 67 66 65 65 64 63 63 63 63 64 66 67 68 69 69 70 72 73 73 74 74 75 75 75 73 69 62 58 58 56 54 52 52 45 43
89 88 86 85 83 81 77 74 72 71 70 68 66 66 67 68 70 70 71 71 72 73 73 74 75 76 77 78 78 77 75 71 70 68 65 62 61 62 60 57 55 51 58 57
85 85 86 86 83 82 82 79 76 75 72 70 68 68 69 69 70 70 71 70 71 73 74 75 77 77 79 81 81 78 76 71 64 63 61 60 60 60 60 63 60 62 58 53
85 84 84 83 86 85 82 80 80 79 77 75 74 72 72 72 73 74 75 75 75 76 77 79 81 82 84 86 87 87 86 85 80 74 78 77 73 70 72 70 67 66 67 68
85 85 84 82 82 82 80 79 78 77 78 78 79 79 77 76 77 78 78 78 80 82 83 85 86 86 85 85 85 84 84 85 86 85 82 78 77 80 83 82 80 79 76 72
89 88 88 87 86 86 85 84 84 84 83 83 82 82 83 84 84 83 84 86 87 87 88 90 91 92 94 96 96 97 97 97 97 95 94 90 87 83 81 80 77 72 69 67